| time (UTC) | temp C | wind direction | speed KPH | gust KPH | rain 1hr cm | rain 24hr cm | rain mn cm | humidity % | barometer mb |
| 20260906003104 | 26 | 123 | 3.2 | 4.8 | 0.00 | 0.00 | 0.00 | 84 | 1011.8 |
| 20260906002258 | 26 | 123 | 3.2 | 8.0 | 0.00 | 0.00 | 0.00 | 83 | 1012.0 |
| 20260906000104 | 26 | 123 | 3.2 | 8.0 | 0.00 | 0.00 | 0.00 | 82 | 1012.2 |
| 20260905235258 | 26 | 127 | 1.6 | 11.3 | 0.00 | 0.00 | 0.00 | 81 | 1012.5 |
| 20260905233104 | 27 | 111 | 4.8 | 14.5 | 0.00 | 0.00 | 0.00 | 80 | 1012.4 |
| 20260905231602 | 27 | 86 | 4.8 | 8.0 | 0.00 | 0.00 | 0.00 | 78 | 1012.3 |
| 20260905230103 | 27 | 86 | 3.2 | 8.0 | 0.00 | 0.00 | 0.00 | 75 | 1012.3 |
| 20260905224602 | 27 | 106 | 4.8 | 4.8 | 0.00 | 0.00 | 0.00 | 75 | 1012.1 |
| 20260905223104 | 27 | 106 | 1.6 | 4.8 | 0.00 | 0.00 | 0.00 | 75 | 1011.9 |
| 20260905221603 | 27 | 106 | 0.0 | 17.7 | 0.00 | 0.00 | 0.00 | 75 | 1012.0 |
| 20260905220103 | 27 | 66 | 4.8 | 14.5 | 0.00 | 0.00 | 0.00 | 74 | 1011.8 |
| 20260905215312 | 28 | 125 | 6.4 | 25.7 | 0.00 | 0.00 | 0.00 | 72 | 1012.2 |
| 20260905213104 | 28 | 124 | 16.1 | 32.2 | 0.00 | 0.00 | 0.00 | 73 | 1012.0 |
| 20260905212313 | 30 | 164 | 9.7 | 25.7 | 0.00 | 0.00 | 0.00 | 68 | 1012.3 |
| 20260905210809 | 31 | 69 | 3.2 | 25.7 | 0.00 | 0.00 | 0.00 | 63 | 1011.8 |
| 20260905204602 | 32 | 102 | 4.8 | 11.3 | 0.00 | 0.00 | 0.00 | 58 | 1011.7 |
| 20260905203807 | 33 | 145 | 1.6 | 11.3 | 0.00 | 0.00 | 0.00 | 57 | 1011.7 |
| 20260905201602 | 33 | 145 | 4.8 | 11.3 | 0.00 | 0.00 | 0.00 | 56 | 1011.7 |
| 20260905200105 | 34 | 123 | 8.0 | 17.7 | 0.00 | 0.00 | 0.00 | 55 | 1011.9 |
| 20260905194602 | 33 | 127 | 8.0 | 11.3 | 0.00 | 0.00 | 0.00 | 56 | 1012.0 |
| 20260905193754 | 33 | 113 | 8.0 | 11.3 | 0.00 | 0.00 | 0.00 | 58 | 1012.0 |
| 20260905191602 | 32 | 93 | 3.2 | 11.3 | 0.00 | 0.00 | 0.00 | 59 | 1012.4 |
| 20260905190104 | 32 | 337 | 1.6 | 14.5 | 0.00 | 0.00 | 0.00 | 59 | 1012.6 |
| 20260905184601 | 33 | 221 | 3.2 | 11.3 | 0.00 | 0.00 | 0.00 | 58 | 1012.7 |
| 20260905183103 | 33 | 141 | 3.2 | 14.5 | 0.00 | 0.08 | 0.00 | 57 | 1012.8 |
| 20260905181602 | 32 | 161 | 3.2 | 14.5 | 0.00 | 0.36 | 0.00 | 58 | 1013.2 |
| 20260905180811 | 32 | 202 | 3.2 | 8.0 | 0.00 | 0.36 | 0.00 | 61 | 1013.5 |
| 20260905175318 | 31 | 303 | 3.2 | 8.0 | 0.00 | 0.36 | 0.00 | 65 | 1013.8 |
| 20260905173104 | 31 | 312 | 3.2 | 11.3 | 0.00 | 0.36 | 0.00 | 65 | 1014.0 |
| 20260905171602 | 32 | 173 | 0.0 | 11.3 | 0.00 | 0.36 | 0.00 | 63 | 1014.1 |
| 20260905164602 | 30 | 209 | 1.6 | 4.8 | 0.00 | 0.36 | 0.00 | 67 | 1014.4 |
| 20260905163756 | 31 | 209 | 1.6 | 8.0 | 0.00 | 0.36 | 0.00 | 65 | 1014.5 |
| 20260905161601 | 31 | 165 | 3.2 | 8.0 | 0.00 | 0.36 | 0.00 | 68 | 1014.5 |
| 20260905160813 | 30 | 172 | 3.2 | 4.8 | 0.00 | 0.36 | 0.00 | 72 | 1014.6 |
| 20260905154602 | 30 | 172 | 0.0 | 4.8 | 0.00 | 0.36 | 0.00 | 73 | 1014.6 |
| 20260905153102 | 30 | 172 | 4.8 | 8.0 | 0.00 | 0.36 | 0.00 | 73 | 1014.7 |
| 20260905151603 | 29 | 172 | 3.2 | 8.0 | 0.00 | 0.36 | 0.00 | 76 | 1014.5 |
| 20260905144601 | 28 | 103 | 1.6 | 8.0 | 0.00 | 0.36 | 0.00 | 81 | 1014.5 |
| 20260905143103 | 28 | 103 | 3.2 | 8.0 | 0.00 | 0.36 | 0.00 | 83 | 1014.4 |
| 20260905141602 | 27 | 109 | 1.6 | 4.8 | 0.00 | 0.36 | 0.00 | 86 | 1014.4 |
| 20260905134602 | 26 | 109 | 0.0 | 8.0 | 0.00 | 0.36 | 0.00 | 90 | 1014.4 |
| 20260905133102 | 25 | 109 | 3.2 | 4.8 | 0.00 | 0.36 | 0.00 | 91 | 1014.3 |
| 20260905131603 | 25 | 109 | 1.6 | 8.0 | 0.00 | 0.36 | 0.00 | 91 | 1014.3 |
| 20260905124602 | 25 | 148 | 0.0 | 0.0 | 0.00 | 0.36 | 0.00 | 91 | 1013.9 |
| 20260905123102 | 24 | 148 | 0.0 | 0.0 | 0.00 | 0.36 | 0.00 | 91 | 1013.8 |
| 20260905121602 | 24 | 148 | 0.0 | 0.0 | 0.00 | 0.36 | 0.00 | 91 | 1013.7 |
| 20260905114602 | 24 | 148 | 0.0 | 0.0 | 0.00 | 0.36 | 0.00 | 91 | 1013.4 |
| 20260905113102 | 24 | 148 | 0.0 | 0.0 | 0.00 | 0.36 | 0.00 | 91 | 1013.2 |
| 20260905111602 | 24 | 148 | 0.0 | 4.8 | 0.00 | 0.36 | 0.00 | 90 | 1013.1 |
| 20260905104603 | 24 | 148 | 0.0 | 0.0 | 0.00 | 0.36 | 0.00 | 90 | 1012.8 |
| 20260905103102 | 24 | 148 | 0.0 | 0.0 | 0.00 | 0.36 | 0.00 | 90 | 1012.8 |
| 20260905101602 | 25 | 148 | 0.0 | 0.0 | 0.00 | 0.36 | 0.00 | 90 | 1012.8 |
| 20260905095311 | 25 | 148 | 0.0 | 3.2 | 0.00 | 0.36 | 0.00 | 90 | 1012.8 |
| 20260905093753 | 25 | 148 | 0.0 | 0.0 | 0.00 | 0.36 | 0.00 | 90 | 1012.7 |
| 20260905091602 | 25 | 148 | 0.0 | 0.0 | 0.00 | 0.36 | 0.00 | 90 | 1012.8 |
| 20260905084602 | 25 | 148 | 0.0 | 0.0 | 0.00 | 0.36 | 0.00 | 89 | 1012.7 |
| 20260905083103 | 25 | 148 | 0.0 | 3.2 | 0.00 | 0.36 | 0.00 | 89 | 1012.7 |
| 20260905081603 | 25 | 148 | 1.6 | 3.2 | 0.00 | 0.38 | 0.00 | 89 | 1012.7 |
| 20260905080809 | 25 | 148 | 0.0 | 0.0 | 0.00 | 0.38 | 0.00 | 89 | 1012.6 |
| 20260905075255 | 25 | 148 | 0.0 | 3.2 | 0.00 | 0.41 | 0.00 | 89 | 1012.8 |
| 20260905073103 | 25 | 148 | 0.0 | 3.2 | 0.00 | 0.43 | 0.00 | 88 | 1012.9 |
| 20260905071602 | 25 | 148 | 0.0 | 0.0 | 0.00 | 0.43 | 0.00 | 88 | 1012.9 |
| 20260905071512 | 25 | 148 | 0.0 | 0.0 | 0.00 | 0.43 | 0.00 | 88 | 1013.1 |
| 20260905065948 | 25 | 148 | 0.0 | 0.0 | 0.00 | 0.43 | 0.00 | 87 | 1013.3 |
| 20260905063102 | 25 | 148 | 0.0 | 3.2 | 0.00 | 0.43 | 0.00 | 87 | 1013.3 |
| 20260905061603 | 25 | 148 | 0.0 | 0.0 | 0.00 | 0.43 | 0.00 | 87 | 1013.4 |
| 20260905054602 | 26 | 148 | 0.0 | 0.0 | 0.00 | 0.43 | 0.00 | 86 | 1013.3 |
| 20260905053102 | 26 | 148 | 0.0 | 0.0 | 0.00 | 0.43 | 0.00 | 86 | 1013.5 |
| 20260905051602 | 26 | 148 | 0.0 | 4.8 | 0.00 | 0.43 | 0.00 | 87 | 1013.4 |
| 20260905044602 | 26 | 148 | 0.0 | 0.0 | 0.00 | 0.43 | 0.43 | 87 | 1013.3 |
| 20260905043102 | 26 | 148 | 0.0 | 3.2 | 0.00 | 0.43 | 0.43 | 86 | 1013.3 |
| 20260905041602 | 26 | 148 | 0.0 | 3.2 | 0.00 | 0.43 | 0.43 | 86 | 1013.5 |
| 20260905034602 | 26 | 148 | 0.0 | 3.2 | 0.00 | 0.43 | 0.43 | 84 | 1013.5 |
| 20260905033102 | 26 | 148 | 0.0 | 0.0 | 0.00 | 0.43 | 0.43 | 83 | 1013.6 |
| 20260905031602 | 27 | 148 | 0.0 | 3.2 | 0.00 | 0.43 | 0.43 | 82 | 1013.5 |
| 20260905024602 | 27 | 148 | 0.0 | 0.0 | 0.00 | 0.43 | 0.43 | 82 | 1013.6 |
| 20260905023049 | 27 | 148 | 0.0 | 3.2 | 0.00 | 0.43 | 0.43 | 82 | 1013.4 |
| 20260905021545 | 27 | 148 | 0.0 | 8.0 | 0.00 | 0.43 | 0.43 | 82 | 1013.4 |
| 20260905020732 | 27 | 145 | 0.0 | 3.2 | 0.00 | 0.43 | 0.43 | 81 | 1013.2 |
| 20260905014541 | 27 | 145 | 0.0 | 3.2 | 0.00 | 0.43 | 0.43 | 81 | 1012.9 |
| 20260905013038 | 27 | 145 | 0.0 | 0.0 | 0.00 | 0.43 | 0.43 | 80 | 1012.7 |
| 20260905012234 | 28 | 145 | 0.0 | 0.0 | 0.00 | 0.43 | 0.43 | 79 | 1012.5 |
| 20260905010035 | 28 | 145 | 0.0 | 0.0 | 0.00 | 0.43 | 0.43 | 76 | 1012.5 |
| 20260905005225 | 28 | 145 | 0.0 | 0.0 | 0.00 | 0.43 | 0.43 | 75 | 1012.4 |